contact: severine.martini@mio.osupytheas.fr, dominique.lefevre@mio.osupytheas.fr
Project:EMSO Ligure-ouest http://www.emso-fr.org/EMSO-France
Sensor Microcat Sea-Bird SBE37 SMP,  Serial 57510 
DOI : "https://doi.org/10.17882/97948" 
Title:EMSO Ligure Ouest : Data Bathybot capteur Microcat - deploiement 2023-04-28
Datetime,Profondeur,Latitude,Longitude,Temperature,Conductivite,Pression,Salinite
time,m,degree_north,degree_east,degree_C,S/m,db,PSU 
2023-12-06T00:00:49,2420,42.8014,5.9826,13.2983,4.59902,2453.604,38.4859
2023-12-06T00:03:49,2420,42.8014,5.9826,13.2988,4.59900,2453.604,38.4853
2023-12-06T00:06:49,2420,42.8014,5.9826,13.2985,4.59903,2453.567,38.4858
2023-12-06T00:09:49,2420,42.8014,5.9826,13.2980,4.59903,2453.582,38.4863
2023-12-06T00:12:49,2420,42.8014,5.9826,13.2984,4.59903,2453.590,38.4859
2023-12-06T00:15:49,2420,42.8014,5.9826,13.2984,4.59906,2453.604,38.4862
2023-12-06T00:18:49,2420,42.8014,5.9826,13.2983,4.59903,2453.612,38.4860
2023-12-06T00:21:49,2420,42.8014,5.9826,13.2982,4.59903,2453.582,38.4861
2023-12-06T00:24:49,2420,42.8014,5.9826,13.2984,4.59904,2453.604,38.4860
2023-12-06T00:27:49,2420,42.8014,5.9826,13.2991,4.59905,2453.604,38.4854
2023-12-06T00:30:49,2420,42.8014,5.9826,13.2982,4.59905,2453.627,38.4863
2023-12-06T00:33:49,2420,42.8014,5.9826,13.2983,4.59903,2453.604,38.4860
2023-12-06T00:36:49,2420,42.8014,5.9826,13.2985,4.59901,2453.604,38.4857
2023-12-06T00:39:49,2420,42.8014,5.9826,13.2988,4.59902,2453.627,38.4854
2023-12-06T00:42:49,2420,42.8014,5.9826,13.2983,4.59907,2453.627,38.4864
2023-12-06T00:45:49,2420,42.8014,5.9826,13.2982,4.59904,2453.582,38.4862
2023-12-06T00:48:49,2420,42.8014,5.9826,13.2984,4.59906,2453.582,38.4862
2023-12-06T00:51:49,2420,42.8014,5.9826,13.2980,4.59904,2453.582,38.4864
2023-12-06T00:54:49,2420,42.8014,5.9826,13.2984,4.59905,2453.582,38.4861
2023-12-06T00:57:49,2420,42.8014,5.9826,13.2982,4.59910,2453.604,38.4868
2023-12-06T01:00:49,2420,42.8014,5.9826,13.2987,4.59906,2453.604,38.4859
2023-12-06T01:03:49,2420,42.8014,5.9826,13.2982,4.59905,2453.567,38.4863
2023-12-06T01:06:49,2420,42.8014,5.9826,13.2982,4.59905,2453.590,38.4863
2023-12-06T01:09:49,2420,42.8014,5.9826,13.2985,4.59901,2453.604,38.4856
2023-12-06T01:12:49,2420,42.8014,5.9826,13.2985,4.59902,2453.604,38.4857
2023-12-06T01:15:49,2420,42.8014,5.9826,13.2984,4.59903,2453.582,38.4859
2023-12-06T01:18:49,2420,42.8014,5.9826,13.2989,4.59902,2453.604,38.4853
2023-12-06T01:21:49,2420,42.8014,5.9826,13.2984,4.59907,2453.582,38.4863
2023-12-06T01:24:49,2420,42.8014,5.9826,13.2987,4.59906,2453.604,38.4859
2023-12-06T01:27:49,2420,42.8014,5.9826,13.2986,4.59904,2453.619,38.4858
2023-12-06T01:30:49,2420,42.8014,5.9826,13.2986,4.59903,2453.582,38.4856
2023-12-06T01:33:49,2420,42.8014,5.9826,13.2984,4.59901,2453.590,38.4857
2023-12-06T01:36:49,2420,42.8014,5.9826,13.2984,4.59902,2453.582,38.4858
2023-12-06T01:39:49,2420,42.8014,5.9826,13.2985,4.59905,2453.604,38.4860
2023-12-06T01:42:49,2420,42.8014,5.9826,13.2986,4.59914,2453.582,38.4868
2023-12-06T01:45:49,2420,42.8014,5.9826,13.2987,4.59907,2453.604,38.4860
2023-12-06T01:48:49,2420,42.8014,5.9826,13.2986,4.59912,2453.582,38.4865
2023-12-06T01:51:49,2420,42.8014,5.9826,13.2985,4.59906,2453.582,38.4862
2023-12-06T01:54:49,2420,42.8014,5.9826,13.2986,4.59908,2453.582,38.4861
2023-12-06T01:57:49,2420,42.8014,5.9826,13.2985,4.59904,2453.582,38.4860
2023-12-06T02:00:49,2420,42.8014,5.9826,13.2992,4.59907,2453.604,38.4855
2023-12-06T02:03:49,2420,42.8014,5.9826,13.2983,4.59903,2453.582,38.4860
2023-12-06T02:06:50,2420,42.8014,5.9826,13.2988,4.59908,2453.604,38.4861
2023-12-06T02:09:49,2420,42.8014,5.9826,13.2982,4.59908,2453.604,38.4866
2023-12-06T02:12:49,2420,42.8014,5.9826,13.2983,4.59910,2453.604,38.4867
2023-12-06T02:15:49,2420,42.8014,5.9826,13.2982,4.59911,2453.604,38.4869
2023-12-06T02:18:49,2420,42.8014,5.9826,13.2984,4.59908,2453.627,38.4864
2023-12-06T02:21:49,2420,42.8014,5.9826,13.2982,4.59912,2453.604,38.4870
2023-12-06T02:24:49,2420,42.8014,5.9826,13.2988,4.59916,2453.604,38.4868
2023-12-06T02:27:49,2420,42.8014,5.9826,13.2983,4.59920,2453.604,38.4876
2023-12-06T02:30:49,2420,42.8014,5.9826,13.2985,4.59914,2453.604,38.4869
2023-12-06T02:33:49,2420,42.8014,5.9826,13.2987,4.59916,2453.627,38.4868
2023-12-06T02:36:49,2420,42.8014,5.9826,13.2985,4.59919,2453.604,38.4874
2023-12-06T02:39:49,2420,42.8014,5.9826,13.2985,4.59910,2453.582,38.4865
2023-12-06T02:42:49,2420,42.8014,5.9826,13.2986,4.59910,2453.627,38.4864
2023-12-06T02:45:49,2420,42.8014,5.9826,13.2985,4.59920,2453.604,38.4874
2023-12-06T02:48:49,2420,42.8014,5.9826,13.2993,4.59909,2453.627,38.4856
2023-12-06T02:51:49,2420,42.8014,5.9826,13.2983,4.59923,2453.604,38.4879
2023-12-06T02:54:49,2420,42.8014,5.9826,13.2986,4.59908,2453.604,38.4862
2023-12-06T02:57:49,2420,42.8014,5.9826,13.2985,4.59909,2453.604,38.4864
2023-12-06T03:00:49,2420,42.8014,5.9826,13.2983,4.59907,2453.619,38.4864
2023-12-06T03:03:49,2420,42.8014,5.9826,13.2982,4.59903,2453.582,38.4862
2023-12-06T03:06:49,2420,42.8014,5.9826,13.2985,4.59922,2453.582,38.4876
2023-12-06T03:09:49,2420,42.8014,5.9826,13.2990,4.59928,2453.627,38.4877
2023-12-06T03:12:49,2420,42.8014,5.9826,13.2986,4.59928,2453.596,38.4881
2023-12-06T03:15:49,2420,42.8014,5.9826,13.2987,4.59925,2453.559,38.4877
2023-12-06T03:18:49,2420,42.8014,5.9826,13.2986,4.59915,2453.604,38.4869
2023-12-06T03:21:49,2420,42.8014,5.9826,13.2985,4.59922,2453.582,38.4877
2023-12-06T03:24:50,2420,42.8014,5.9826,13.2991,4.59917,2453.604,38.4866
2023-12-06T03:27:49,2420,42.8014,5.9826,13.2991,4.59923,2453.627,38.4872
2023-12-06T03:30:49,2420,42.8014,5.9826,13.2986,4.59926,2453.604,38.4878
2023-12-06T03:33:49,2420,42.8014,5.9826,13.2988,4.59930,2453.590,38.4881
2023-12-06T03:36:49,2420,42.8014,5.9826,13.2990,4.59927,2453.604,38.4876
2023-12-06T03:39:49,2420,42.8014,5.9826,13.2987,4.59923,2453.559,38.4875
2023-12-06T03:42:49,2420,42.8014,5.9826,13.2986,4.59913,2453.582,38.4866
2023-12-06T03:45:49,2420,42.8014,5.9826,13.2995,4.59931,2453.604,38.4874
2023-12-06T03:48:49,2420,42.8014,5.9826,13.2996,4.59922,2453.567,38.4866
2023-12-06T03:51:50,2420,42.8014,5.9826,13.2998,4.59913,2453.582,38.4855
2023-12-06T03:54:49,2420,42.8014,5.9826,13.3002,4.59939,2453.619,38.4875
2023-12-06T03:57:49,2420,42.8014,5.9826,13.2989,4.59942,2453.559,38.4891
2023-12-06T04:00:49,2420,42.8014,5.9826,13.2987,4.59929,2453.604,38.4881
2023-12-06T04:03:49,2420,42.8014,5.9826,13.2986,4.59927,2453.604,38.4879
2023-12-06T04:06:49,2420,42.8014,5.9826,13.2996,4.59927,2453.582,38.4870
2023-12-06T04:09:49,2420,42.8014,5.9826,13.2982,4.59920,2453.604,38.4877
2023-12-06T04:12:49,2420,42.8014,5.9826,13.2996,4.59945,2453.590,38.4887
2023-12-06T04:15:49,2420,42.8014,5.9826,13.2988,4.59941,2453.582,38.4892
2023-12-06T04:18:49,2420,42.8014,5.9826,13.2985,4.59948,2453.604,38.4901
2023-12-06T04:21:49,2420,42.8014,5.9826,13.2993,4.59937,2453.596,38.4883
2023-12-06T04:24:49,2420,42.8014,5.9826,13.2993,4.59927,2453.582,38.4873
2023-12-06T04:27:49,2420,42.8014,5.9826,13.2995,4.59915,2453.619,38.4860
2023-12-06T04:30:49,2420,42.8014,5.9826,13.2988,4.59917,2453.627,38.4868
2023-12-06T04:33:49,2420,42.8014,5.9826,13.2986,4.59922,2453.604,38.4875
2023-12-06T04:36:49,2420,42.8014,5.9826,13.2991,4.59914,2453.604,38.4863
2023-12-06T04:39:49,2420,42.8014,5.9826,13.2993,4.59933,2453.582,38.4878
2023-12-06T04:42:49,2420,42.8014,5.9826,13.2991,4.59922,2453.582,38.4870
2023-12-06T04:45:49,2420,42.8014,5.9826,13.2988,4.59920,2453.582,38.4871
2023-12-06T04:48:49,2420,42.8014,5.9826,13.2995,4.59914,2453.582,38.4859
2023-12-06T04:51:49,2420,42.8014,5.9826,13.2984,4.59909,2453.604,38.4865
2023-12-06T04:54:49,2420,42.8014,5.9826,13.2985,4.59920,2453.582,38.4874
2023-12-06T04:57:49,2420,42.8014,5.9826,13.2988,4.59915,2453.604,38.4867
2023-12-06T05:00:49,2420,42.8014,5.9826,13.2986,4.59928,2453.596,38.4881
2023-12-06T05:03:49,2420,42.8014,5.9826,13.2990,4.59927,2453.619,38.4876
2023-12-06T05:06:49,2420,42.8014,5.9826,13.2984,4.59931,2453.604,38.4886
2023-12-06T05:09:49,2420,42.8014,5.9826,13.2985,4.59923,2453.619,38.4877
2023-12-06T05:12:49,2420,42.8014,5.9826,13.2985,4.59934,2453.582,38.4888
2023-12-06T05:15:49,2420,42.8014,5.9826,13.2992,4.59928,2453.582,38.4874
2023-12-06T05:18:49,2420,42.8014,5.9826,13.2991,4.59934,2453.596,38.4882
2023-12-06T05:21:49,2420,42.8014,5.9826,13.2986,4.59908,2453.619,38.4861
2023-12-06T05:24:49,2420,42.8014,5.9826,13.2999,4.59908,2453.582,38.4850
2023-12-06T05:27:49,2420,42.8014,5.9826,13.2985,4.59919,2453.590,38.4873
2023-12-06T05:30:50,2420,42.8014,5.9826,13.2979,4.59914,2453.582,38.4875
2023-12-06T05:33:49,2420,42.8014,5.9826,13.2984,4.59920,2453.582,38.4875
2023-12-06T05:36:49,2420,42.8014,5.9826,13.2987,4.59913,2453.559,38.4866
2023-12-06T05:39:49,2420,42.8014,5.9826,13.2993,4.59922,2453.604,38.4869
2023-12-06T05:42:49,2420,42.8014,5.9826,13.2985,4.59944,2453.582,38.4897
2023-12-06T05:45:49,2420,42.8014,5.9826,13.2994,4.59927,2453.582,38.4872
2023-12-06T05:48:49,2420,42.8014,5.9826,13.2997,4.59916,2453.582,38.4859
2023-12-06T05:51:49,2420,42.8014,5.9826,13.2998,4.59923,2453.604,38.4865
2023-12-06T05:54:49,2420,42.8014,5.9826,13.2991,4.59932,2453.582,38.4880
2023-12-06T05:57:49,2420,42.8014,5.9826,13.2994,4.59937,2453.596,38.4882
2023-12-06T06:00:49,2420,42.8014,5.9826,13.2996,4.59938,2453.582,38.4880
2023-12-06T06:03:49,2420,42.8014,5.9826,13.2990,4.59942,2453.582,38.4890
2023-12-06T06:06:49,2420,42.8014,5.9826,13.2999,4.59921,2453.619,38.4861
2023-12-06T06:09:49,2420,42.8014,5.9826,13.2995,4.59924,2453.559,38.4868
2023-12-06T06:12:49,2420,42.8014,5.9826,13.2991,4.59923,2453.559,38.4871
2023-12-06T06:15:49,2420,42.8014,5.9826,13.2986,4.59957,2453.582,38.4908
2023-12-06T06:18:49,2420,42.8014,5.9826,13.2988,4.59928,2453.582,38.4879
2023-12-06T06:21:49,2420,42.8014,5.9826,13.2988,4.59946,2453.559,38.4897
2023-12-06T06:24:49,2420,42.8014,5.9826,13.3002,4.59929,2453.582,38.4866
2023-12-06T06:27:49,2420,42.8014,5.9826,13.2993,4.59943,2453.582,38.4888
2023-12-06T06:30:49,2420,42.8014,5.9826,13.2988,4.59948,2453.582,38.4897
2023-12-06T06:33:49,2420,42.8014,5.9826,13.2985,4.59933,2453.596,38.4887
2023-12-06T06:36:49,2420,42.8014,5.9826,13.2985,4.59910,2453.559,38.4865
2023-12-06T06:39:49,2420,42.8014,5.9826,13.2986,4.59911,2453.559,38.4864
2023-12-06T06:42:49,2420,42.8014,5.9826,13.2985,4.59911,2453.567,38.4866
2023-12-06T06:45:49,2420,42.8014,5.9826,13.2983,4.59915,2453.582,38.4872
2023-12-06T06:48:49,2420,42.8014,5.9826,13.2979,4.59904,2453.596,38.4865
2023-12-06T06:51:49,2420,42.8014,5.9826,13.2983,4.59903,2453.559,38.4861
2023-12-06T06:54:49,2420,42.8014,5.9826,13.2988,4.59900,2453.567,38.4853
2023-12-06T06:57:49,2420,42.8014,5.9826,13.2985,4.59901,2453.582,38.4857
2023-12-06T07:00:49,2420,42.8014,5.9826,13.2988,4.59903,2453.604,38.4855
2023-12-06T07:03:49,2420,42.8014,5.9826,13.2984,4.59900,2453.582,38.4856
2023-12-06T07:06:49,2420,42.8014,5.9826,13.2985,4.59901,2453.582,38.4857
2023-12-06T07:09:49,2420,42.8014,5.9826,13.2981,4.59900,2453.582,38.4860
2023-12-06T07:12:49,2420,42.8014,5.9826,13.2982,4.59900,2453.582,38.4859
2023-12-06T07:15:49,2420,42.8014,5.9826,13.2988,4.59900,2453.559,38.4853
2023-12-06T07:18:49,2420,42.8014,5.9826,13.2995,4.59901,2453.604,38.4846
2023-12-06T07:21:49,2420,42.8014,5.9826,13.2979,4.59900,2453.582,38.4861
2023-12-06T07:24:49,2420,42.8014,5.9826,13.2987,4.59899,2453.582,38.4852
2023-12-06T07:27:49,2420,42.8014,5.9826,13.2981,4.59899,2453.641,38.4858
2023-12-06T07:30:49,2420,42.8014,5.9826,13.2984,4.59900,2453.604,38.4856
2023-12-06T07:33:49,2420,42.8014,5.9826,13.2982,4.59898,2453.627,38.4857
2023-12-06T07:36:49,2420,42.8014,5.9826,13.2983,4.59900,2453.590,38.4858
2023-12-06T07:39:49,2420,42.8014,5.9826,13.2982,4.59899,2453.604,38.4858
2023-12-06T07:42:49,2420,42.8014,5.9826,13.2979,4.59898,2453.582,38.4859
2023-12-06T07:45:49,2420,42.8014,5.9826,13.2985,4.59899,2453.582,38.4855
2023-12-06T07:48:49,2420,42.8014,5.9826,13.2978,4.59900,2453.619,38.4862
2023-12-06T07:51:49,2420,42.8014,5.9826,13.2980,4.59899,2453.604,38.4859
2023-12-06T07:54:49,2420,42.8014,5.9826,13.2984,4.59899,2453.567,38.4855
2023-12-06T07:57:49,2420,42.8014,5.9826,13.2983,4.59898,2453.604,38.4855
2023-12-06T08:00:49,2420,42.8014,5.9826,13.2982,4.59900,2453.582,38.4859
2023-12-06T08:03:49,2420,42.8014,5.9826,13.2981,4.59900,2453.590,38.4859
2023-12-06T08:06:49,2420,42.8014,5.9826,13.2990,4.59899,2453.559,38.4849
2023-12-06T08:09:49,2420,42.8014,5.9826,13.2985,4.59900,2453.582,38.4855
2023-12-06T08:12:49,2420,42.8014,5.9826,13.2982,4.59899,2453.582,38.4858
2023-12-06T08:15:49,2420,42.8014,5.9826,13.2991,4.59900,2453.627,38.4849
2023-12-06T08:18:49,2420,42.8014,5.9826,13.2985,4.59899,2453.582,38.4855
2023-12-06T08:21:49,2420,42.8014,5.9826,13.2982,4.59898,2453.619,38.4857
2023-12-06T08:24:49,2420,42.8014,5.9826,13.2985,4.59897,2453.612,38.4853
2023-12-06T08:27:49,2420,42.8014,5.9826,13.2980,4.59898,2453.582,38.4859
2023-12-06T08:30:49,2420,42.8014,5.9826,13.2986,4.59898,2453.604,38.4853
2023-12-06T08:33:49,2420,42.8014,5.9826,13.2984,4.59898,2453.582,38.4855
2023-12-06T08:36:49,2420,42.8014,5.9826,13.2976,4.59899,2453.627,38.4863
2023-12-06T08:39:49,2420,42.8014,5.9826,13.2996,4.59899,2453.567,38.4844
2023-12-06T08:42:49,2420,42.8014,5.9826,13.2979,4.59899,2453.604,38.4860
2023-12-06T08:45:49,2420,42.8014,5.9826,13.2983,4.59900,2453.604,38.4857
2023-12-06T08:48:49,2420,42.8014,5.9826,13.2984,4.59900,2453.627,38.4856
2023-12-06T08:51:50,2420,42.8014,5.9826,13.2985,4.59905,2453.604,38.4860
2023-12-06T08:54:49,2420,42.8014,5.9826,13.2993,4.59900,2453.612,38.4847
2023-12-06T08:57:49,2420,42.8014,5.9826,13.2993,4.59898,2453.604,38.4846
2023-12-06T09:00:49,2420,42.8014,5.9826,13.2986,4.59899,2453.627,38.4853
2023-12-06T09:03:49,2420,42.8014,5.9826,13.2983,4.59900,2453.627,38.4857
2023-12-06T09:06:49,2420,42.8014,5.9826,13.2979,4.59900,2453.627,38.4861
2023-12-06T09:09:49,2420,42.8014,5.9826,13.2982,4.59900,2453.627,38.4858
